Simultaneous Nadir Overpasses (SNOs) Predictions

Prediction of SNOs between AQUA and GOES-15 Satellite Orbit:

Table of predicted SNOs for the next 14.0 days since TLE Epoch: 3/1/2012
Index Date Time (AQUA) AQUA Lat,Lon GOES-15 Lat,Lon Distance(km) Time Diff (sec)
1 03/02/2012 22:22:58 0.67,-131.98 -0.04,-135.42 391.01 80
2 03/03/2012 10:44:14 0.39,-137.14 0.04,-135.42 195.42 80
3 03/05/2012 10:32:01 -0.20,-134.17 0.05,-135.41 140.53 80
4 03/05/2012 22:53:24 -0.90,-139.36 -0.04,-135.41 449.83 80
5 03/07/2012 10:19:49 -0.86,-131.21 0.05,-135.39 476.01 80
6 03/07/2012 22:41:11 -0.29,-136.39 -0.05,-135.39 114.49 80
7 03/09/2012 22:28:59 0.34,-133.42 -0.05,-135.37 220.44 80
8 03/10/2012 10:50:14 0.70,-138.59 0.04,-135.36 366.52 80
9 03/12/2012 10:38:00 0.11,-135.61 0.05,-135.33 32.49 80
10 03/14/2012 10:25:46 -0.50,-132.64 0.05,-135.29 300.93 80
11 03/14/2012 22:47:10 -0.57,-137.83 -0.05,-135.28 290.01 80




NCC Satellite Simultaneous Nadir Overpasses (SNOs) Prediction Service
